FW1042 Weather Reports


time (UTC)temp
F
wind
direction
speed
knots
gust
knots
rain 1hr
in
rain 24hr
in
rain mn
in
humidity
%
barometer
mb
20260506034745 63 13 6.1 12.2 0.00 0.00 0.00 80 1008.9
20260506034546 63 344 6.1 11.3 0.00 0.00 0.00 80 1009.1
20260506034039 63 14 5.2 13.0 0.00 0.00 0.00 79 1008.8
20260506033541 64 5 6.1 13.0 0.00 0.00 0.00 79 1008.9
20260506033044 64 310 5.2 11.3 0.00 0.00 0.00 79 1008.7
20260506032247 64 312 4.3 11.3 0.00 0.00 0.00 79 1008.7
20260506032036 65 5 4.3 8.7 0.00 0.00 0.00 79 1008.9
20260506031240 65 273 4.3 9.6 0.00 0.00 0.00 78 1008.9
20260506030741 65 350 4.3 12.2 0.00 0.00 0.00 78 1008.4
20260506030238 65 0 5.2 12.2 0.00 0.00 0.00 78 1008.4
20260506030049 66 9 5.2 12.2 0.00 0.00 0.00 77 1008.5
20260506025239 66 0 4.3 12.2 0.00 0.00 0.00 77 1008.2
20260506024738 66 333 5.2 11.3 0.00 0.00 0.00 77 1008.3
20260506024234 67 329 5.2 12.2 0.00 0.00 0.00 77 1008.1
20260506023737 67 11 5.2 12.2 0.00 0.00 0.00 77 1008.0
20260506023233 68 306 5.2 11.3 0.00 0.00 0.00 76 1007.7
20260506022732 68 340 4.3 10.4 0.00 0.00 0.00 76 1007.3
20260506022232 68 331 4.3 10.4 0.00 0.00 0.00 76 1007.1
20260506021733 69 355 4.3 10.4 0.00 0.00 0.00 76 1007.1
20260506021232 69 17 4.3 11.3 0.00 0.00 0.00 75 1007.1
20260506020733 69 323 4.3 11.3 0.00 0.00 0.00 75 1007.0
20260506020618 69 0 4.3 9.6 0.00 0.00 0.00 75 1006.9
20260506020614 69 341 4.3 9.6 0.00 0.00 0.00 75 1006.9
20260506015233 69 5 5.2 9.6 0.00 0.00 0.00 74 1006.7
20260506014732 70 16 5.2 9.6 0.00 0.00 0.00 73 1006.7
20260506014231 70 15 5.2 12.2 0.00 0.00 0.00 73 1006.8
20260506013730 71 288 4.3 12.2 0.00 0.00 0.00 72 1006.3
20260506013232 72 5 3.5 12.2 0.00 0.00 0.00 73 1006.3
20260506012729 72 303 2.6 9.6 0.00 0.00 0.00 72 1006.3
20260506012227 72 325 2.6 7.8 0.00 0.00 0.00 72 1006.1
20260506011728 72 310 2.6 7.0 0.00 0.00 0.00 72 1006.2
20260506011225 72 349 2.6 7.0 0.00 0.00 0.00 71 1006.0
20260506010725 72 355 2.6 7.0 0.00 0.00 0.00 71 1005.8
20260506010222 73 315 2.6 7.8 0.00 0.00 0.00 71 1006.1
20260506005723 73 5 2.6 7.8 0.00 0.00 0.00 70 1006.3
20260506005223 73 333 3.5 7.8 0.00 0.00 0.00 70 1006.0
20260506004721 73 24 3.5 7.8 0.00 0.00 0.00 69 1005.5
20260506004517 73 5 3.5 7.8 0.00 0.00 0.00 69 1005.5
20260506003720 73 304 3.5 8.7 0.00 0.00 0.00 69 1005.8
20260506003221 74 355 4.3 10.4 0.00 0.00 0.00 69 1005.6
20260506002721 74 329 3.5 10.4 0.00 0.00 0.00 68 1005.5
20260506002214 74 301 3.5 8.7 0.00 0.00 0.00 68 1005.1
20260506001708 74 289 3.5 9.6 0.00 0.00 0.00 67 1005.2
20260506001203 75 310 4.3 9.6 0.00 0.00 0.00 67 1005.2
20260506000956 75 304 4.3 11.3 0.00 0.00 0.00 67 1005.0
20260506000205 76 5 4.3 11.3 0.00 0.00 0.00 66 1005.0
20260505235703 76 338 5.2 12.2 0.00 0.00 0.00 65 1005.2
20260505235204 77 273 6.1 12.2 0.00 0.00 0.00 65 1005.0
20260505234703 78 355 5.2 11.3 0.00 0.00 0.00 64 1005.1
20260505234204 78 15 4.3 11.3 0.00 0.00 0.00 64 1004.8
20260505233702 79 325 4.3 9.6 0.00 0.00 0.00 63 1004.8
20260505233202 79 275 4.3 9.6 0.00 0.00 0.00 63 1004.7
20260505232703 79 250 5.2 12.2 0.00 0.00 0.00 62 1004.7
20260505232203 80 344 5.2 12.2 0.00 0.00 0.00 61 1004.7
20260505231704 80 317 5.2 12.2 0.00 0.00 0.00 60 1004.8
20260505231202 81 329 5.2 12.2 0.00 0.00 0.00 60 1004.5
20260505230703 82 25 5.2 12.2 0.00 0.00 0.00 59 1004.5
20260505230204 83 349 5.2 11.3 0.00 0.00 0.00 58 1004.3
20260505225703 84 0 4.3 9.6 0.00 0.00 0.00 57 1004.2
20260505225449 85 312 4.3 9.6 0.00 0.00 0.00 54 1003.9
20260505224803 87 26 2.6 7.0 0.00 0.00 0.00 49 1004.1
20260505224745 86 348 2.6 9.6 0.00 0.00 0.00 52 1003.9
20260505223957 87 296 3.5 9.6 0.00 0.00 0.00 48 1004.1
20260505223251 89 329 3.5 9.6 0.00 0.00 0.00 45 1003.7
20260505223235 88 338 3.5 9.6 0.00 0.00 0.00 46 1004.0
20260505222202 90 305 3.5 9.6 0.00 0.00 0.00 45 1003.5
20260505221703 89 260 3.5 9.6 0.00 0.00 0.00 46 1003.5
20260505221156 89 337 3.5 9.6 0.00 0.00 0.00 46 1003.5
20260505220655 89 5 3.5 8.7 0.00 0.00 0.00 45 1003.5
20260505220153 90 286 3.5 8.7 0.00 0.00 0.00 44 1003.3
20260505215654 92 10 2.6 8.7 0.00 0.00 0.00 45 1003.3
20260505215455 92 326 1.7 5.2 0.00 0.00 0.00 49 1003.4
20260505215006 92 254 2.6 7.8 0.00 0.00 0.00 48 1003.4
20260505214448 92 309 3.5 7.8 0.00 0.00 0.00 48 1003.4
20260505213654 92 169 3.5 7.8 0.00 0.00 0.00 48 1003.4
20260505213150 92 238 2.6 7.0 0.00 0.00 0.00 50 1003.4
20260505212947 92 190 2.6 8.7 0.00 0.00 0.00 50 1003.5
20260505212150 92 286 3.5 9.6 0.00 0.00 0.00 51 1003.6
20260505211650 92 130 3.5 9.6 0.00 0.00 0.00 50 1003.7
20260505211443 92 211 2.6 7.0 0.00 0.00 0.00 51 1003.8
20260505210650 92 199 2.6 7.0 0.00 0.00 0.00 51 1003.7
20260505210148 92 333 1.7 7.0 0.00 0.00 0.00 51 1003.8
20260505205650 91 317 1.7 7.0 0.00 0.00 0.00 52 1003.8
20260505205437 91 323 1.7 7.0 0.00 0.00 0.00 52 1003.8
20260505204659 91 176 2.6 7.0 0.00 0.00 0.00 54 1003.9
20260505204146 91 342 2.6 7.0 0.00 0.00 0.00 54 1004.0
20260505203943 91 303 2.6 7.0 0.00 0.00 0.00 54 1004.1
20260505203143 89 210 2.6 8.7 0.00 0.00 0.00 56 1004.0
20260505202642 90 231 1.7 8.7 0.00 0.00 0.00 54 1004.3
20260505202138 91 89 2.6 7.0 0.00 0.00 0.00 54 1004.4
20260505201646 90 269 2.6 7.0 0.00 0.00 0.00 55 1004.3
20260505201138 89 188 2.6 9.6 0.00 0.00 0.00 56 1004.3
20260505200638 89 256 3.5 9.6 0.00 0.00 0.00 55 1004.3
20260505200138 89 205 4.3 8.7 0.00 0.00 0.00 57 1004.3
20260505195935 89 180 4.3 10.4 0.00 0.00 0.00 56 1004.3
20260505195138 89 139 4.3 10.4 0.00 0.00 0.00 56 1004.5
20260505194638 89 203 4.3 10.4 0.00 0.00 0.00 58 1004.3
20260505194139 88 219 5.2 13.0 0.00 0.00 0.00 59 1004.3
20260505193634 88 141 4.3 13.0 0.00 0.00 0.00 59 1004.5
20260505193134 88 230 4.3 12.2 0.00 0.00 0.00 59 1004.5
20260505192634 88 132 4.3 9.6 0.00 0.00 0.00 58 1004.4
20260505192134 88 159 4.3 9.6 0.00 0.00 0.00 59 1004.4
20260505191635 87 167 4.3 8.7 0.00 0.00 0.00 60 1004.4
20260505191134 87 186 4.3 11.3 0.00 0.00 0.00 61 1004.4
20260505190635 87 221 4.3 11.3 0.00 0.00 0.00 60 1004.4
20260505190135 86 184 4.3 11.3 0.00 0.00 0.00 61 1004.3
20260505185634 86 149 5.2 11.3 0.00 0.00 0.00 61 1004.4
20260505185136 86 199 4.3 11.3 0.00 0.00 0.00 61 1004.4
20260505184635 86 168 3.5 10.4 0.00 0.00 0.00 61 1004.4
20260505184135 86 193 3.5 9.6 0.00 0.00 0.00 61 1004.4
20260505183635 86 215 3.5 8.7 0.00 0.00 0.00 62 1004.4
20260505183137 86 282 3.5 10.4 0.00 0.00 0.00 61 1004.4
20260505182634 86 186 4.3 10.4 0.00 0.00 0.00 62 1004.3
20260505182134 86 195 4.3 10.4 0.00 0.00 0.00 61 1004.4
20260505181631 86 140 4.3 11.3 0.00 0.00 0.00 61 1004.4
20260505181130 86 153 5.2 11.3 0.00 0.00 0.00 62 1004.4
20260505180631 86 206 5.2 11.3 0.00 0.00 0.00 62 1004.5
20260505180420 86 155 4.3 10.4 0.00 0.00 0.00 63 1004.4
20260505175631 85 130 4.3 10.4 0.00 0.00 0.00 66 1004.4
20260505175128 85 161 4.3 10.4 0.00 0.00 0.00 65 1004.4
20260505174627 85 265 4.3 9.6 0.00 0.00 0.00 66 1004.3
20260505174128 84 180 5.2 10.4 0.00 0.00 0.00 67 1004.3
20260505173922 84 136 5.2 13.9 0.00 0.00 0.00 66 1004.4
20260505173425 84 159 5.2 13.9 0.00 0.00 0.00 66 1004.3
20260505172627 83 219 5.2 11.3 0.00 0.00 0.00 66 1004.4
20260505172127 83 165 4.3 10.4 0.00 0.00 0.00 69 1004.4
20260505171628 83 213 5.2 13.0 0.00 0.00 0.00 68 1004.4
20260505171128 82 144 5.2 13.9 0.00 0.00 0.00 69 1004.4
20260505170627 82 164 5.2 13.9 0.00 0.00 0.00 69 1004.4
20260505170424 82 272 4.3 12.2 0.00 0.00 0.00 69 1004.7
20260505165628 82 218 4.3 12.2 0.00 0.00 0.00 70 1004.7
20260505165419 82 158 4.3 19.1 0.00 0.00 0.00 70 1004.4
20260505164628 81 202 4.3 19.1 0.00 0.00 0.00 71 1004.7
20260505164422 81 163 5.2 10.4 0.00 0.00 0.00 72 1004.5
20260505163626 80 212 6.1 14.8 0.00 0.00 0.00 73 1004.4
20260505163126 80 150 6.1 14.8 0.00 0.00 0.00 72 1004.4
20260505162626 80 327 6.1 13.9 0.00 0.00 0.00 73 1004.7
20260505162126 79 147 6.1 13.9 0.00 0.00 0.00 73 1004.5
20260505161925 79 175 6.1 13.9 0.00 0.00 0.00 73 1004.5
20260505161126 79 203 5.2 13.9 0.00 0.00 0.00 73 1004.2
20260505161008 79 182 6.1 15.6 0.00 0.00 0.00 74 1004.3
20260505161003 79 158 5.2 15.6 0.00 0.00 0.00 74 1004.3
20260505153120 78 163 6.1 15.6 0.00 0.00 0.00 75 1004.0
20260505152620 78 191 6.1 14.8 0.00 0.00 0.00 76 1004.1
20260505152118 78 188 7.0 14.8 0.00 0.00 0.00 77 1004.0
20260505151631 77 209 6.1 14.8 0.00 0.00 0.00 79 1004.2
20260505151118 76 126 5.2 14.8 0.00 0.00 0.00 79 1004.1
20260505150618 76 209 5.2 14.8 0.00 0.00 0.00 80 1004.4
20260505150121 76 225 5.2 14.8 0.00 0.00 0.00 80 1004.4
20260505140614 73 169 4.3 11.3 0.00 0.00 0.00 85 1004.2
20260505140114 73 276 4.3 13.0 0.00 0.00 0.00 85 1004.2
20260505130114 71 136 5.2 14.8 0.00 0.00 0.00 88 1004.3
20260505124614 71 253 5.2 15.6 0.00 0.00 0.00 88 1004.0
20260505124113 71 194 5.2 13.0 0.00 0.00 0.00 88 1003.8
20260505123612 71 185 5.2 9.6 0.00 0.00 0.00 88 1003.7
20260505123112 71 195 4.3 11.3 0.00 0.00 0.00 88 1003.6
20260505122609 71 212 5.2 13.0 0.00 0.00 0.00 88 1003.5
20260505122108 71 223 5.2 13.0 0.00 0.00 0.00 88 1003.5
20260505121607 71 214 5.2 13.9 0.00 0.00 0.00 88 1003.4
20260505121109 71 202 6.1 13.9 0.00 0.00 0.00 87 1003.4
20260505120606 71 182 6.1 13.0 0.00 0.00 0.00 87 1003.4
20260505120205 71 185 5.2 11.3 0.00 0.00 0.00 87 1003.4
20260505120148 71 202 5.2 13.0 0.00 0.00 0.00 87 1003.3
20260505115154 71 190 4.3 13.0 0.00 0.00 0.00 87 1003.2
20260505115138 71 151 5.2 13.0 0.00 0.00 0.00 87 1003.3
20260505114101 71 204 5.2 11.3 0.00 0.00 0.00 87 1003.3
20260505113600 71 232 5.2 11.3 0.00 0.00 0.00 87 1003.4
20260505113100 71 150 4.3 11.3 0.00 0.00 0.00 87 1003.3
20260505112559 71 157 5.2 13.0 0.00 0.00 0.00 87 1003.4
20260505112101 71 212 5.2 13.0 0.00 0.00 0.00 87 1003.2
20260505111652 71 213 5.2 10.4 0.00 0.00 0.00 87 1003.3
20260505111636 71 130 5.2 11.3 0.00 0.00 0.00 87 1003.3
20260505110557 71 194 5.2 11.3 0.00 0.00 0.00 87 1003.2
20260505102057 71 200 5.2 12.2 0.00 0.00 0.00 86 1003.2
20260505101552 71 148 5.2 16.5 0.00 0.00 0.00 86 1003.2
20260505101335 71 227 6.1 16.5 0.00 0.00 0.00 86 1003.4
20260505101113 71 227 6.1 16.5 0.00 0.00 0.00 86 1003.4
20260505100552 71 196 5.2 13.9 0.00 0.00 0.00 86 1003.3
20260505100052 71 144 4.3 13.9 0.00 0.00 0.00 86 1003.3
20260505095552 71 159 5.2 12.2 0.00 0.00 0.00 86 1003.4
20260505095052 71 144 6.1 12.2 0.00 0.00 0.00 86 1003.4
20260505094552 71 161 7.0 13.9 0.00 0.00 0.00 86 1003.3
20260505094055 71 161 6.1 13.9 0.00 0.00 0.00 86 1003.4
20260505093552 71 170 5.2 13.9 0.00 0.00 0.00 86 1003.4
20260505093052 71 196 5.2 14.8 0.00 0.00 0.00 86 1003.5
20260505092552 71 238 6.1 14.8 0.00 0.00 0.00 86 1003.5
20260505092053 71 190 6.1 13.9 0.00 0.00 0.00 86 1003.6
20260505091551 71 167 6.1 13.9 0.00 0.00 0.00 86 1003.7
20260505091052 71 149 5.2 13.9 0.00 0.00 0.00 85 1003.7
20260505090545 71 199 5.2 11.3 0.00 0.00 0.00 85 1003.7
20260505090044 71 165 5.2 11.3 0.00 0.00 0.00 85 1003.7
20260505085541 71 141 4.3 10.4 0.00 0.00 0.00 85 1003.7
20260505085037 72 178 6.1 13.9 0.00 0.00 0.00 85 1003.7
20260505084538 72 222 7.0 18.2 0.00 0.00 0.00 85 1003.7
20260505084037 72 190 6.1 18.2 0.00 0.00 0.00 85 1003.8
20260505083538 72 219 5.2 13.0 0.00 0.00 0.00 84 1003.7
20260505083037 72 219 6.1 13.0 0.00 0.00 0.00 84 1003.6
20260505082829 72 155 5.2 12.2 0.00 0.00 0.00 84 1003.7
20260505082037 72 159 5.2 11.3 0.00 0.00 0.00 84 1003.8
20260505081539 72 182 5.2 10.4 0.00 0.00 0.00 83 1003.7
20260505081332 72 178 5.2 16.5 0.00 0.00 0.00 83 1003.7
20260505080538 72 145 6.1 16.5 0.00 0.00 0.00 83 1003.7
20260505080035 72 180 6.1 19.1 0.00 0.00 0.00 83 1003.8
20260505075535 72 198 6.1 19.1 0.00 0.00 0.00 83 1003.8
20260505075031 73 193 6.1 15.6 0.00 0.00 0.00 82 1003.9
20260505074524 73 122 6.1 17.4 0.00 0.00 0.00 82 1003.9
20260505074318 73 150 6.1 17.4 0.00 0.00 0.00 81 1004.1
20260505073837 73 190 5.2 14.8 0.00 0.00 0.00 81 1004.1
20260505073021 73 156 5.2 14.8 0.00 0.00 0.00 81 1004.4
20260505072820 73 184 5.2 13.0 0.00 0.00 0.00 80 1004.3
20260505072022 73 155 5.2 15.6 0.00 0.00 0.00 80 1004.4
20260505071521 73 181 5.2 15.6 0.00 0.00 0.00 79 1004.5
20260505071021 73 205 6.1 11.3 0.00 0.00 0.00 79 1004.5
20260505070531 73 188 5.2 14.8 0.00 0.00 0.00 79 1004.7
20260505070024 73 135 5.2 14.8 0.00 0.00 0.00 78 1004.9
20260505065521 74 121 6.1 13.9 0.00 0.00 0.00 78 1005.0
20260505065119 74 157 5.2 15.6 0.00 0.00 0.00 77 1005.0
20260505065100 74 153 6.1 15.6 0.00 0.00 0.00 78 1004.9
20260505064322 74 136 4.3 13.0 0.00 0.00 0.00 77 1005.0
20260505063516 74 227 5.2 12.2 0.00 0.00 0.00 77 1005.1
20260505063016 74 168 5.2 12.2 0.00 0.00 0.00 77 1005.1
20260505062515 74 197 5.2 13.0 0.00 0.00 0.00 77 1005.1
20260505062013 74 186 4.3 13.0 0.00 0.00 0.00 77 1005.1
20260505061513 74 142 4.3 13.0 0.00 0.00 0.00 76 1005.1
20260505061013 74 138 4.3 13.0 0.00 0.00 0.00 76 1005.2
20260505060513 74 148 5.2 13.0 0.00 0.00 0.00 76 1005.2
20260505060013 74 161 5.2 13.0 0.00 0.00 0.00 75 1005.1
20260505055515 74 192 4.3 13.0 0.00 0.00 0.00 75 1005.0
20260505055325 74 211 5.2 13.9 0.00 0.00 0.00 75 1005.0
20260505054602 74 196 4.3 9.6 0.00 0.00 0.00 74 1005.2
20260505054548 74 198 4.3 13.9 0.00 0.00 0.00 75 1005.2
20260505053509 74 173 5.2 12.2 0.00 0.00 0.00 74 1005.1
20260505053011 74 178 4.3 12.2 0.00 0.00 0.00 74 1005.2
20260505052504 74 137 5.2 13.0 0.00 0.00 0.00 74 1005.3
20260505052008 74 154 5.2 13.0 0.00 0.00 0.00 74 1005.4
20260505051504 74 188 5.2 12.2 0.00 0.00 0.00 74 1005.4
20260505051004 74 140 5.2 11.3 0.00 0.00 0.00 74 1005.6
20260505050803 74 170 5.2 13.9 0.00 0.00 0.00 73 1005.5
20260505050321 75 162 6.1 14.8 0.00 0.00 0.00 73 1005.5
20260505041448 75 121 5.2 14.8 0.00 0.00 0.00 72 1005.5
20260505041240 75 160 5.2 14.8 0.00 0.00 0.00 72 1005.7
20260505040434 75 180 6.1 14.8 0.00 0.00 0.00 71 1005.6
20260505035934 75 150 6.1 13.9 0.00 0.00 0.00 71 1005.7
20260505035435 75 118 5.2 13.9 0.00 0.00 0.00 71 1005.6